Regional Weather Roundup
Issued by NWS

Home | Current Version | Previous Version | Text Only | Print | Product List | Glossary Off
Versions: 1 2 3 4 5 6 7 8 9 10 11 12 13 14 15 16 17 18 19 20 21 22 23 24 25 26 27 28 29 30 31 32 33 34 35 36 37 38 39 40 41 42 43 44 45 46 47 48 49 50

000
ASUS43 KMPX 301801
RWRMN
WEATHER ROUNDUP FOR MINNESOTA
NATIONAL WEATHER SERVICE TWIN CITIES/CHANHASSEN MN
100 PM CDT SAT AUG 30 2014


NOTE: "FAIR" INDICATES FEW OR NO CLOUDS BELOW 12,000 FEET WITH NO
SIGNIFICANT WEATHER AND/OR OBSTRUCTIONS TO VISIBILITY. N/A MEANS
CURRENT SKY AND/OR WEATHER CONDITIONS ARE NOT AVAILABLE.

MNZ060>063-068>070-301900-
   Twin Cities Metro

CITY           SKY/WX    TMP DP  RH WIND       PRES   REMARKS
TWIN CITIES    CLOUDY    72  62  71 N7        29.86R
6HR MIN TEMP:  66; 6HR MAX TEMP:  74;

ST PAUL        CLOUDY    71  62  73 N7        29.86R
CRYSTAL        CLOUDY    74  61  63 N8        29.85R
BLAINE         CLOUDY    72  64  78 NE6       29.86R
LAKEVILLE      PTSUNNY   72  63  73 CALM      29.86R
EDEN PRAIRIE   PTSUNNY   76  64  66 N7        29.85S
6HR MIN TEMP:  68; 6HR MAX TEMP:  78;

SOUTH ST PAUL  CLOUDY    71  60  69 N5        29.86R
LAKE ELMO      CLOUDY    68  63  83 NW7       29.87S
$$
MNZ001>005-007-008-013>017-022>024-027-028-301900-
   Northwest Minnesota

CITY           SKY/WX    TMP DP  RH WIND       PRES   REMARKS
BEMIDJI        CLOUDY    62  55  80 E5        29.90F
HALLOCK        SUNNY     66  52  59 S3        29.90F
ROSEAU         SUNNY     68  54  60 E5        29.92R
WARROAD        SUNNY     64  55  72 NE9       29.93S
THIEF RVR FALL MOSUNNY   66  52  59 NE5       29.91F
CROOKSTON      SUNNY     66  54  63 NE5       29.91F
FOSSTON        SUNNY     66  57  72 E3        29.91F
DETROIT LAKES  CLOUDY    63  57  82 N3        29.91S
MOORHEAD       CLOUDY    64  61  88 N5        29.90F
PARK RAPIDS    CLOUDY    60  58  92 NE5       29.90F
MAHNOMEN       CLOUDY    65  57  76 E7        29.90S
$$
MNZ006-009>011-018-025>026-301900-
   North Central Minnesota

CITY           SKY/WX    TMP DP  RH WIND       PRES   REMARKS
BAUDETTE       MOSUNNY   67  54  63 VRB6      29.91F
FLAG ISLAND    PTSUNNY   61  52  72 N3        29.92S
INTL FALLS     MOSUNNY   67  53  61 N9        29.90F
6HR MIN TEMP:  58; 6HR MAX TEMP:  68;

WASKISH        MOSUNNY   64  55  72 E5        29.91F
BIG FORK       SUNNY     66  57  72 NE8       29.90F
LONGVILLE      CLOUDY    63  59  88 NE3       29.90R
GRAND RAPIDS   CLOUDY    61  55  82 N7        29.91R
CRANE LAKE     CLOUDY    61  54  77 CALM      29.93S
ORR            CLOUDY    63  54  72 CALM      29.89S
COOK           CLOUDY    63  55  77 NE3       29.90F
WALKER         CLOUDY    60  56  87 CALM      29.90F
$$
MNZ012-019>021-037-301900-
   Northeast Minnesota

CITY           SKY/WX    TMP DP  RH WIND       PRES   REMARKS
DULUTH         PTSUNNY   68  60  75 VRB6      29.87S
6HR MIN TEMP:  61; 6HR MAX TEMP:  68;

ELY            CLOUDY    61  55  82 NE5       29.90S
HIBBING        CLOUDY    65  58  78 NE6       29.90R
EVELETH        CLOUDY    63  55  77 NE7       29.90S
DULUTH HARBOR  CLOUDY    64  61  88 CALM      29.87S
TWO HARBORS    DRIZZLE   63  57  82 CALM      29.86S
SILVER BAY     RAIN      61  61 100 CALM      29.86R
GRAND MARAIS     N/A     66  59  78 VRB3      29.86R
G MARAIS ARPRT PTSUNNY   61  54  77 N10       29.90R
$$
MNZ029>031-032-039>041-046>048-054>057-064-301900-
   West Central Minnesota

CITY           SKY/WX    TMP DP  RH WIND       PRES   REMARKS
FERGUS FALLS   CLOUDY    63  59  88 NW6       29.89F
WHEATON        CLOUDY    61  55  82 NW5       29.92S
MORRIS         MOSUNNY   66  63  88 NW6       29.88F
ALEXANDRIA     CLOUDY    65  61  87 NW5       29.90F
ELBOW LAKE     CLOUDY    62  59  90 NW5       29.89F
WADENA         CLOUDY    61  57  88 N5        29.90S
GLENWOOD       PTSUNNY   66  63  88 N5        29.90S
APPLETON       CLOUDY    66  61  82 NW3       29.89F
BENSON         CLOUDY    66  61  82 N7        29.89S
ORTONVILLE     CLOUDY    64  57  77 NW5       29.91R
MADISON        SUNNY     66  61  82 NW7       29.91S
WILLMAR        PTSUNNY   68  63  83 W7        29.90S
$$
MNZ033>034-036-042>043-049>051-058-059-301900-
   Central Minnesota

CITY           SKY/WX    TMP DP  RH WIND       PRES   REMARKS
ST CLOUD       CLOUDY    71  63  75 W5        29.87S
6HR MIN TEMP:  68; 6HR MAX TEMP:  72; 6HR PCP: TRACE;

SAUK CENTRE    CLOUDY    64  61  88 CALM      29.89S
PAYNESVILLE    LGT RAIN  65  63  94 W7        29.89S
AITKIN         CLOUDY    72  63  73 CALM      29.87S
PINE RIVER     CLOUDY    61  59  94 N5        29.93S
BRAINERD       CLOUDY    63  61  93 NE6       29.89S
STAPLES        CLOUDY    61  59  94 N3        29.90S
LONG PRAIRIE   CLOUDY    63  61  94 CALM      29.90S
LITTLE FALLS   CLOUDY    63  61  94 CALM      29.89S
LITCHFIELD     CLOUDY    73  70  88 W8        29.88R
BUFFALO        CLOUDY    71  61  69 NE5       29.88R
MAPLE LAKE     CLOUDY    72  64  77 N3        29.88R
$$
MNZ037-044-045-052-053-301900-
   East Central Minnesota

CITY           SKY/WX    TMP DP  RH WIND       PRES   REMARKS
PRINCETON      PTSUNNY   73  63  68 E5        29.86F
MORA           CLOUDY    70  59  68 CALM      29.88S
CAMBRIDGE      PTSUNNY   72  59  64 NE3       29.85S
RUSH CITY      PTSUNNY   70  60  71 NE3       29.86F
MOOSE LAKE     CLOUDY    68  61  77 NE5       29.85F
HINCKLEY       CLOUDY    70  63  78 NE5       29.86S
CLOQUET        CLOUDY    66  61  82 E3        29.87S
MCGREGOR       CLOUDY    68  61  77 NE6       29.88S
$$
MNZ071>073-080-081-089-090-097-098-301900-
   Southwest Minnesota

CITY           SKY/WX    TMP DP  RH WIND       PRES   REMARKS
MONTEVIDEO     CLOUDY    68  68 100 N7        29.91S
GRANITE FALLS  CLOUDY    65  62  90 W6        29.91F
CANBY          CLOUDY    65  60  81 NW5       29.92S
MARSHALL       CLOUDY    64  59  82 NW5       29.90F
REDWOOD FALLS  CLOUDY    67  63  87 W9        29.89S
OLIVIA         CLOUDY    70  64  83 W10       29.89R
PIPESTONE      CLOUDY    66  63  88 SW3       29.93S
WINDOM         CLOUDY    68  63  83 NW3       29.92S
WORTHINGTON    PTSUNNY   68  63  83 W6        29.94S
JACKSON        CLOUDY    70  61  73 W5        29.92S
TRACY          CLOUDY    65  63  91 CALM      29.92S
SLAYTON        CLOUDY    65  62  89 CALM      29.94S
$$
MNZ065>067-074>077-082>085-091>093-301900-
   South Central Minnesota

CITY           SKY/WX    TMP DP  RH WIND       PRES   REMARKS
MANKATO        CLOUDY    70  63  78 W8        29.88S
NEW ULM        MOSUNNY   68  66  94 W8        29.89S
ST JAMES       CLOUDY    72  63  73 W8        29.90F
FAIRMONT       CLOUDY    66  61  82 W5        29.91S
GLENCOE        CLOUDY    75  64  70 SW6       29.86S
FARIBAULT      MOSUNNY   79  61  53 CALM      29.86S
OWATONNA       MOSUNNY   75  64  69 NW9       29.86F
WASECA         CLOUDY    72  61  68 W9G16     29.89R
ALBERT LEA     PTSUNNY   73  66  78 W6        29.87S
$$
MNZ078>079-086>088-094>096-301900-
   Southeast Minnesota

CITY           SKY/WX    TMP DP  RH WIND       PRES   REMARKS
ROCHESTER      PTSUNNY   73  63  70 NW12      29.87R
6HR MIN TEMP:  66; 6HR MAX TEMP:  75;

RED WING       CLOUDY    72  64  78 NW9       29.84R
STANTON        CLOUDY    74  62  66 N7        29.84S
DODGE CENTER   PTSUNNY   73  64  73 NW8       29.87R
WINONA         CLOUDY    70  64  83 NW5       29.83R
AUSTIN         MOSUNNY   73  64  73 NW9       29.86S
PRESTON        PTSUNNY   73  68  84 NW5       29.87S
$$
ABBREVIATIONS USED IN REMARKS
   TC - TEMPERATURES IN CELSIUS
  WCI - WIND CHILL INDEX
   HX - HEAT INDEX
  VSB - VISIBILITY
$$



USA.gov is the U.S. government's official web portal to all federal, state and local government web resources and services.